{"data":{"norad_id":33373,"epoch":"2026-05-25T03:21:10.817856Z","epoch_age_seconds":69867,"freshness":"FRESH","line1":"1 33373U 08044A   26145.13970854 -.00000223  00000+0  00000+0 0  9996","line2":"2 33373   0.0068  36.6945 0002030  22.3368 152.0190  1.00271230 64753","mean_motion":1.0027123,"eccentricity":0.000203,"inclination_deg":0.0068,"raan_deg":36.6945,"arg_perigee_deg":22.3368,"mean_anomaly_deg":152.019,"bstar":0,"rev_number":6475,"period_min":1436.1048528077,"perigee_km":35778.191076383,"apogee_km":35795.310020728,"semimajor_km":42164.887548555,"source":"CELESTRAK","updated_at":"2026-05-25T13:38:13.860960Z"}}